Content
SEND FEEDBACK

Daily
Averages
Monthly
Summary
United States of America

ST. LOUIS, MISSOURI


Home > North America > United States > Missouri
Elevation: 535 feet     Latitude: 38 45N     Longitude: 090 22W

WEATHER
 
SELECT A DAY
Number of Records: 200,462;   Date Range: 1/1/95 - 11/21/14
 
SHARE

PRINT THIS DATA

[ ← Previous Day ]
WEATHER ALMANAC - FEBRUARY 25, 2013
[ Next Day → ]
[ °C ]   °F
Weather ElementAverageHighLow
Temperature36.8 °F45 °F (10:54 am)24.1 °F (6:54 am)
Dewpoint27.6 °F32 °F (11:54 pm)21 °F (6:54 am)
Humidity70.9 %89 % (7:54 am)49 % (10:54 am)
Barometer29.91 in30.09 in (1:54 am)29.63 in (11:54 pm)
Wind Speed9.7 mph19.6 mph (2:54 pm)
Wind Gust27.6 mph (9:54 pm)
Weather ElementAverage
Visibility7.9 mi
Wind DirectionNE (43.8 °)

Weather ElementTotal
Precipitation0.18 in
Heating Degree Days30.5 (Base 65)
Averaged from 24 records on February 25, 2013
WEATHER CONDITIONS BREAKOUT
WIND DIRECTION BREAKOUT
WEATHER BY HOUR - FEBRUARY 25, 2013
[ °C ]   °F
Local TimeTemperatureDewpointHumidityBarometerVisibilityWind DirectionWind SpeedGust SpeedPrecipitationEventsConditions
1:54 AM27.0 °F23.0 °F85 %30.09 in6.0 miCalmClear
2:54 AM28.9 °F25.0 °F85 %30.07 in7.0 miENE (70°)3.5 mphClear
3:54 AM27.0 °F23.0 °F85 %30.05 in6.0 miCalmClear
4:54 AM27.0 °F23.0 °F85 %30.06 in6.0 miCalmClear
5:54 AM26.1 °F21.9 °F84 %30.02 in5.0 miCalmClear
6:54 AM24.1 °F21.0 °F88 %30.04 in5.0 miCalmMostly Cloudy
7:54 AM28.9 °F26.1 °F89 %30.04 in5.0 miCalmClear
8:54 AM37.0 °F27.0 °F67 %30.03 in8.0 miENE (70°)9.2 mphClear
9:54 AM43.0 °F26.1 °F51 %30.02 in10.0 miEast (100°)5.8 mphClear
10:54 AM45.0 °F27.0 °F49 %30.01 in10.0 miEast (90°)10.4 mph20.7 mphMostly Cloudy
11:54 AM45.0 °F28.0 °F52 %29.99 in10.0 miEast (90°)12.7 mph19.6 mphOvercast
12:54 PM45.0 °F28.9 °F53 %29.95 in10.0 miENE (60°)13.8 mphOvercast
1:54 PM45.0 °F30.0 °F56 %29.88 in10.0 miENE (70°)17.3 mph24.2 mphClear
2:54 PM44.1 °F28.9 °F55 %29.84 in10.0 miENE (60°)19.6 mph25.3 mphMostly Cloudy
3:54 PM44.1 °F28.9 °F55 %29.84 in10.0 miENE (60°)17.3 mphOvercast
4:54 PM42.1 °F30.0 °F62 %29.81 in10.0 miNE (40°)11.5 mphOvercast
5:54 PM39.9 °F28.9 °F65 %29.79 in10.0 miNE (40°)15.0 mph21.9 mphOvercast
6:54 PM39.9 °F30.9 °F70 %29.84 in10.0 miNE (40°)10.4 mphOvercast
7:54 PM39.9 °F30.9 °F70 %29.85 in10.0 miNNE (30°)10.4 mphOvercast
8:54 PM39.0 °F30.0 °F70 %29.81 in10.0 miNE (40°)9.2 mph20.7 mph0.00 inOvercast
9:38 PM37.4 °F30.2 °F75 %29.73 in10.0 miNE (50°)17.3 mph23.0 mph0.00 inRainLight Rain
9:54 PM36.0 °F30.0 °F79 %29.74 in2.5 miNE (40°)18.4 mph27.6 mph0.03 inSnowLight Snow
10:54 PM35.1 °F30.9 °F85 %29.70 in5.0 miNE (50°)13.8 mph25.3 mph0.06 inRainLight Rain
11:54 PM36.0 °F32.0 °F86 %29.63 in5.0 miNE (50°)17.3 mph0.09 inRainLight Rain
Hourly data recorded from KSUS, located miles away from St. Louis, Missouri







STORIES FROM OUR PARTNERS